VOZ886 YSSY-YMML

Flight info

Callsign VOZ886
Flight time N/A
Altitude 34000
Route GROOK1/16R WOL H65 LEECE Q29 ML
Aircraft B738/M-SDE2E3FGHIRWXY/LB1

Departure

Time 2026-04-23 12:12
Airport Sydney Kingsford Smith International Airport (YSSY)

Arrival

Time N/A
Airport Melbourne Airport (YMML)
Time Latitude Longitude Altitude Speed Heading
2026-04-23 11:42 -33.93563 151.17777 29 ft 0 kts 280°
2026-04-23 11:54 -33.93563 151.17779 29 ft 3 kts 280°
2026-04-23 11:54 -33.93567 151.17801 29 ft 3 kts 272°
2026-04-23 11:54 -33.93561 151.17822 30 ft 3 kts 205°
2026-04-23 11:55 -33.93555 151.17824 30 ft 0 kts 194°
2026-04-23 11:59 -33.93572 151.17822 30 ft 8 kts 182°
2026-04-23 12:00 -33.93637 151.17817 29 ft 10 kts 186°
2026-04-23 12:00 -33.93702 151.17805 29 ft 9 kts 191°
2026-04-23 12:00 -33.93779 151.17785 23 ft 15 kts 189°
2026-04-23 12:00 -33.93851 151.17738 19 ft 12 kts 244°
2026-04-23 12:01 -33.93870 151.17666 19 ft 0 kts 252°
2026-04-23 12:01 -33.93870 151.17665 19 ft 1 kts 255°
2026-04-23 12:01 -33.93829 151.17592 17 ft 15 kts 344°
2026-04-23 12:01 -33.93732 151.17566 17 ft 14 kts 348°
2026-04-23 12:02 -33.93638 151.17541 16 ft 14 kts 347°
2026-04-23 12:02 -33.93548 151.17518 16 ft 13 kts 348°
2026-04-23 12:02 -33.93460 151.17501 19 ft 13 kts 359°
2026-04-23 12:02 -33.93374 151.17501 20 ft 12 kts 350°
2026-04-23 12:03 -33.93291 151.17480 20 ft 12 kts 347°
2026-04-23 12:03 -33.93210 151.17460 20 ft 12 kts 351°
2026-04-23 12:03 -33.93132 151.17440 24 ft 11 kts 347°
2026-04-23 12:03 -33.93056 151.17419 24 ft 11 kts 347°
2026-04-23 12:04 -33.92985 151.17388 24 ft 11 kts 318°
2026-04-23 12:04 -33.92964 151.17332 20 ft 0 kts 282°
2026-04-23 12:09 -33.92961 151.17315 19 ft 8 kts 281°
2026-04-23 12:09 -33.92963 151.17213 18 ft 14 kts 256°
2026-04-23 12:09 -33.93029 151.17183 18 ft 0 kts 168°
2026-04-23 12:11 -33.93041 151.17186 18 ft 10 kts 168°
2026-04-23 12:11 -33.93410 151.17283 17 ft 101 kts 168°
2026-04-23 12:11 -33.94365 151.17532 96 ft 172 kts 167°
2026-04-23 12:12 -33.95550 151.17774 1287 ft 163 kts 169°
2026-04-23 12:12 -33.96290 151.17868 2180 ft 164 kts 173°
2026-04-23 12:12 -33.97510 151.17983 2809 ft 190 kts 173°
2026-04-23 12:12 -33.98940 151.18135 3137 ft 222 kts 172°
2026-04-23 12:13 -34.00606 151.18328 3274 ft 261 kts 173°
2026-04-23 12:13 -34.02523 151.18401 3791 ft 284 kts 180°
2026-04-23 12:13 -34.04484 151.18272 4712 ft 277 kts 179°
2026-04-23 12:13 -34.06027 151.18522 4933 ft 268 kts 163°
2026-04-23 12:14 -34.07808 151.19151 4990 ft 266 kts 162°
2026-04-23 12:14 -34.09583 151.19770 5001 ft 264 kts 162°
2026-04-23 12:14 -34.11343 151.20376 4996 ft 262 kts 162°
2026-04-23 12:14 -34.13101 151.20970 5013 ft 263 kts 162°
2026-04-23 12:15 -34.15489 151.21527 4988 ft 268 kts 182°
2026-04-23 12:15 -34.16689 151.21167 5012 ft 271 kts 202°
2026-04-23 12:15 -34.18255 151.19895 5017 ft 274 kts 219°
2026-04-23 12:15 -34.19694 151.18364 5005 ft 275 kts 220°
2026-04-23 12:16 -34.21106 151.16812 5005 ft 275 kts 221°
2026-04-23 12:16 -34.22519 151.15256 5004 ft 275 kts 221°
2026-04-23 12:16 -34.23936 151.13701 5067 ft 278 kts 220°
2026-04-23 12:16 -34.25375 151.12129 5837 ft 278 kts 220°
2026-04-23 12:17 -34.26814 151.10563 6893 ft 279 kts 220°
2026-04-23 12:17 -34.28269 151.08984 7793 ft 283 kts 219°
2026-04-23 12:17 -34.29747 151.07382 8706 ft 286 kts 219°
2026-04-23 12:17 -34.31237 151.05768 9633 ft 289 kts 219°
2026-04-23 12:18 -34.32747 151.04134 10464 ft 296 kts 219°
2026-04-23 12:18 -34.34336 151.02419 10722 ft 323 kts 219°
2026-04-23 12:18 -34.36080 151.00537 10933 ft 348 kts 219°
2026-04-23 12:18 -34.37915 150.98551 11453 ft 360 kts 219°
2026-04-23 12:19 -34.39795 150.96510 12222 ft 364 kts 219°
2026-04-23 12:19 -34.41689 150.94452 13059 ft 366 kts 219°
2026-04-23 12:19 -34.43595 150.92382 13855 ft 370 kts 219°
2026-04-23 12:19 -34.45523 150.90287 14597 ft 374 kts 219°
2026-04-23 12:20 -34.47444 150.88198 15340 ft 376 kts 219°
2026-04-23 12:20 -34.49395 150.86076 16114 ft 378 kts 219°
2026-04-23 12:20 -34.51354 150.83945 16855 ft 380 kts 219°
2026-04-23 12:20 -34.53333 150.81791 17570 ft 383 kts 219°
2026-04-23 12:21 -34.55321 150.79624 18279 ft 386 kts 220°
2026-04-23 12:21 -34.57159 150.77225 18938 ft 392 kts 229°
2026-04-23 12:21 -34.58796 150.74552 19547 ft 396 kts 232°
2026-04-23 12:21 -34.60390 150.71813 20123 ft 399 kts 232°
2026-04-23 12:22 -34.61993 150.69040 20709 ft 402 kts 232°
2026-04-23 12:22 -34.63615 150.66255 21280 ft 405 kts 232°
2026-04-23 12:22 -34.65264 150.63453 21843 ft 408 kts 232°
2026-04-23 12:22 -34.66912 150.60679 22381 ft 412 kts 232°
2026-04-23 12:23 -34.68601 150.57850 22921 ft 415 kts 232°
2026-04-23 12:23 -34.70302 150.55009 23440 ft 418 kts 232°
2026-04-23 12:23 -34.72022 150.52140 23959 ft 421 kts 232°
2026-04-23 12:23 -34.73756 150.49248 24353 ft 425 kts 232°
2026-04-23 12:24 -34.75497 150.46340 24379 ft 426 kts 232°
2026-04-23 12:24 -34.77240 150.43425 24396 ft 425 kts 232°
2026-04-23 12:24 -34.78977 150.40518 24403 ft 425 kts 232°
2026-04-23 12:24 -34.80713 150.37611 24407 ft 425 kts 232°
2026-04-23 12:25 -34.82453 150.34696 24400 ft 425 kts 232°
2026-04-23 12:25 -34.84194 150.31774 24410 ft 426 kts 232°
2026-04-23 12:25 -34.85934 150.28853 24409 ft 426 kts 232°
2026-04-23 12:25 -34.87674 150.25930 24402 ft 427 kts 232°
2026-04-23 12:26 -34.89415 150.23002 24411 ft 427 kts 232°
2026-04-23 12:26 -34.91156 150.20070 24407 ft 427 kts 232°
2026-04-23 12:26 -34.92898 150.17137 24402 ft 427 kts 233°
2026-04-23 12:26 -34.94639 150.14203 24408 ft 427 kts 232°
2026-04-23 12:27 -34.96385 150.11264 24409 ft 427 kts 232°
2026-04-23 12:27 -34.97791 150.08898 24405 ft 427 kts 233°
2026-04-23 12:27 -34.99535 150.05966 24409 ft 427 kts 232°
2026-04-23 12:27 -35.01281 150.03034 24413 ft 428 kts 232°
2026-04-23 12:28 -35.03037 150.00085 24413 ft 428 kts 232°
2026-04-23 12:28 -35.04789 149.97144 24411 ft 428 kts 232°
2026-04-23 12:28 -35.06542 149.94201 24420 ft 428 kts 232°
2026-04-23 12:28 -35.08275 149.91294 24416 ft 428 kts 232°
2026-04-23 12:29 -35.10027 149.88352 24417 ft 428 kts 232°
2026-04-23 12:29 -35.11779 149.85409 24421 ft 428 kts 232°
2026-04-23 12:29 -35.13530 149.82466 24419 ft 428 kts 232°
2026-04-23 12:29 -35.15280 149.79529 24420 ft 428 kts 232°
2026-04-23 12:30 -35.17036 149.76581 24418 ft 427 kts 232°
2026-04-23 12:30 -35.18789 149.73637 24426 ft 427 kts 232°
2026-04-23 12:30 -35.20539 149.70697 24425 ft 427 kts 232°
2026-04-23 12:30 -35.22285 149.67754 24423 ft 427 kts 233°
2026-04-23 12:31 -35.23969 149.64800 24641 ft 428 kts 234°
2026-04-23 12:31 -35.25666 149.61780 25018 ft 433 kts 234°
2026-04-23 12:31 -35.27386 149.58737 25489 ft 433 kts 233°
2026-04-23 12:31 -35.29113 149.55713 25997 ft 433 kts 233°
2026-04-23 12:32 -35.30852 149.52694 26430 ft 435 kts 233°
2026-04-23 12:32 -35.32610 149.49664 26825 ft 438 kts 232°
2026-04-23 12:32 -35.34381 149.46622 27216 ft 440 kts 232°
2026-04-23 12:32 -35.36163 149.43563 27610 ft 442 kts 232°
2026-04-23 12:33 -35.37954 149.40489 28013 ft 444 kts 232°
2026-04-23 12:33 -35.39750 149.37403 28390 ft 446 kts 232°
2026-04-23 12:33 -35.41553 149.34300 28761 ft 448 kts 232°
2026-04-23 12:33 -35.43361 149.31188 29126 ft 449 kts 231°
2026-04-23 12:34 -35.45176 149.28059 29521 ft 450 kts 231°
2026-04-23 12:34 -35.46965 149.24971 30024 ft 448 kts 231°
2026-04-23 12:34 -35.48758 149.21870 30620 ft 444 kts 231°
2026-04-23 12:34 -35.50542 149.18783 31097 ft 441 kts 231°
2026-04-23 12:35 -35.52321 149.15703 31482 ft 441 kts 230°
2026-04-23 12:35 -35.54095 149.12632 31828 ft 441 kts 230°
2026-04-23 12:35 -35.55867 149.09561 32216 ft 440 kts 230°
2026-04-23 12:35 -35.57633 149.06496 32644 ft 438 kts 230°
2026-04-23 12:36 -35.59387 149.03449 33062 ft 436 kts 229°
2026-04-23 12:36 -35.61126 149.00425 33606 ft 432 kts 229°
2026-04-23 12:36 -35.62843 148.97435 34009 ft 430 kts 229°
2026-04-23 12:36 -35.64564 148.94442 34296 ft 431 kts 228°
2026-04-23 12:37 -35.66262 148.91487 34550 ft 433 kts 228°
2026-04-23 12:37 -35.67986 148.88484 34520 ft 437 kts 229°
2026-04-23 12:37 -35.71479 148.82383 34514 ft 433 kts 228°
2026-04-23 12:38 -35.74924 148.76348 34532 ft 430 kts 228°
2026-04-23 12:38 -35.78359 148.70331 34527 ft 429 kts 228°
2026-04-23 12:39 -35.81792 148.64304 34529 ft 429 kts 228°
2026-04-23 12:39 -35.85199 148.58314 34514 ft 429 kts 228°
2026-04-23 12:40 -35.88642 148.52249 34523 ft 429 kts 228°
2026-04-23 12:40 -35.92031 148.46234 34509 ft 430 kts 228°
2026-04-23 12:41 -35.95438 148.40168 34512 ft 430 kts 228°
2026-04-23 12:41 -35.98852 148.34082 34508 ft 431 kts 228°
2026-04-23 12:42 -36.02243 148.28026 34525 ft 431 kts 228°
2026-04-23 12:42 -36.05656 148.21920 34489 ft 431 kts 228°
2026-04-23 12:43 -36.09062 148.15817 34488 ft 430 kts 229°
2026-04-23 12:43 -36.12457 148.09725 34491 ft 430 kts 229°
2026-04-23 12:44 -36.15849 148.03655 34490 ft 429 kts 228°
2026-04-23 12:44 -36.19248 147.97566 34492 ft 429 kts 229°
2026-04-23 12:45 -36.22642 147.91475 34474 ft 429 kts 229°
2026-04-23 12:45 -36.26000 147.85431 34476 ft 428 kts 229°
2026-04-23 12:46 -36.29382 147.79337 34477 ft 428 kts 229°
2026-04-23 12:46 -36.32757 147.73243 34480 ft 428 kts 229°
2026-04-23 12:47 -36.36128 147.67140 34465 ft 428 kts 229°
2026-04-23 12:47 -36.39467 147.61077 34468 ft 428 kts 229°
2026-04-23 12:48 -36.42820 147.54976 34470 ft 428 kts 230°
2026-04-23 12:48 -36.46172 147.48868 34478 ft 427 kts 230°
2026-04-23 12:49 -36.49521 147.42755 34477 ft 428 kts 230°
2026-04-23 12:49 -36.52870 147.36631 34469 ft 428 kts 230°
2026-04-23 12:50 -36.56223 147.30487 34485 ft 429 kts 230°
2026-04-23 12:50 -36.59561 147.24361 34465 ft 431 kts 230°
2026-04-23 12:51 -36.62916 147.18192 34484 ft 431 kts 230°
2026-04-23 12:51 -36.66279 147.11995 34469 ft 432 kts 230°
2026-04-23 12:52 -36.69642 147.05788 34481 ft 431 kts 231°
2026-04-23 12:52 -36.73004 146.99583 34280 ft 435 kts 231°
2026-04-23 12:53 -36.74692 146.96464 33949 ft 429 kts 231°
2026-04-23 12:53 -36.76344 146.93406 33518 ft 422 kts 231°
2026-04-23 12:53 -36.77957 146.90416 33084 ft 418 kts 231°
2026-04-23 12:53 -36.79570 146.87427 32657 ft 413 kts 231°
2026-04-23 12:54 -36.81165 146.84469 32226 ft 409 kts 231°
2026-04-23 12:54 -36.82746 146.81534 31804 ft 405 kts 231°
2026-04-23 12:54 -36.84308 146.78634 31405 ft 400 kts 231°
2026-04-23 12:54 -36.85859 146.75752 31005 ft 397 kts 231°
2026-04-23 12:55 -36.87389 146.72907 30607 ft 394 kts 232°
2026-04-23 12:55 -36.88910 146.70077 30143 ft 391 kts 232°
2026-04-23 12:55 -36.90420 146.67263 29696 ft 386 kts 232°
2026-04-23 12:55 -36.91905 146.64491 29284 ft 382 kts 232°
2026-04-23 12:56 -36.93375 146.61746 28848 ft 378 kts 232°
2026-04-23 12:56 -36.94830 146.59029 28464 ft 374 kts 232°
2026-04-23 12:56 -36.96274 146.56330 28054 ft 372 kts 232°
2026-04-23 12:56 -36.97706 146.53651 27651 ft 369 kts 232°
2026-04-23 12:57 -36.99133 146.50979 27260 ft 371 kts 232°
2026-04-23 12:57 -37.00569 146.48295 26884 ft 382 kts 232°
2026-04-23 12:57 -37.02059 146.45502 26466 ft 387 kts 233°
2026-04-23 12:57 -37.03545 146.42708 26043 ft 384 kts 233°
2026-04-23 12:58 -37.05015 146.39943 25629 ft 380 kts 233°
2026-04-23 12:58 -37.06476 146.37193 25220 ft 377 kts 233°
2026-04-23 12:58 -37.07926 146.34466 24815 ft 374 kts 233°
2026-04-23 12:58 -37.09401 146.31739 24138 ft 380 kts 233°
2026-04-23 12:59 -37.10897 146.29010 23578 ft 380 kts 233°
2026-04-23 12:59 -37.12390 146.26303 23145 ft 375 kts 233°
2026-04-23 12:59 -37.13857 146.23658 22747 ft 371 kts 233°
2026-04-23 12:59 -37.15326 146.21017 22368 ft 366 kts 233°
2026-04-23 13:00 -37.16776 146.18418 21989 ft 362 kts 233°
2026-04-23 13:00 -37.18217 146.15841 21622 ft 358 kts 233°
2026-04-23 13:00 -37.19639 146.13306 21268 ft 354 kts 233°
2026-04-23 13:00 -37.20577 146.11638 21015 ft 352 kts 233°
2026-04-23 13:01 -37.22187 146.08784 20614 ft 348 kts 233°
2026-04-23 13:01 -37.23581 146.06322 20270 ft 345 kts 233°
2026-04-23 13:01 -37.24967 146.03881 19922 ft 342 kts 233°
2026-04-23 13:01 -37.25889 146.02267 19699 ft 340 kts 233°
2026-04-23 13:02 -37.27264 145.99869 19367 ft 337 kts 233°
2026-04-23 13:02 -37.29079 145.96721 18932 ft 334 kts 233°
2026-04-23 13:02 -37.30457 145.94395 18621 ft 330 kts 227°
2026-04-23 13:02 -37.32140 145.92471 18351 ft 324 kts 223°
2026-04-23 13:03 -37.33464 145.90201 18062 ft 324 kts 244°
2026-04-23 13:03 -37.33923 145.88402 17899 ft 333 kts 258°
2026-04-23 13:03 -37.33821 145.84429 17590 ft 349 kts 282°
2026-04-23 13:03 -37.33432 145.82460 17430 ft 350 kts 283°
2026-04-23 13:04 -37.32797 145.79521 17088 ft 347 kts 284°
2026-04-23 13:04 -37.32179 145.76602 16704 ft 344 kts 283°
2026-04-23 13:04 -37.31592 145.73707 16338 ft 340 kts 283°
2026-04-23 13:04 -37.31020 145.70830 15977 ft 338 kts 283°
2026-04-23 13:05 -37.30740 145.67928 15598 ft 334 kts 263°
2026-04-23 13:05 -37.31345 145.65138 15044 ft 335 kts 242°
2026-04-23 13:05 -37.32615 145.62699 14619 ft 334 kts 233°
2026-04-23 13:05 -37.33992 145.60344 14210 ft 333 kts 233°
2026-04-23 13:06 -37.36494 145.56113 13473 ft 329 kts 233°
2026-04-23 13:06 -37.37849 145.53797 13098 ft 326 kts 233°
2026-04-23 13:06 -37.39164 145.51533 12740 ft 323 kts 234°
2026-04-23 13:07 -37.40481 145.49257 12389 ft 321 kts 234°
2026-04-23 13:07 -37.41791 145.46985 12027 ft 319 kts 234°
2026-04-23 13:07 -37.43087 145.44734 11680 ft 317 kts 234°
2026-04-23 13:07 -37.44375 145.42498 11330 ft 315 kts 234°
2026-04-23 13:08 -37.45784 145.40418 10971 ft 309 kts 224°
2026-04-23 13:08 -37.47344 145.38658 10805 ft 296 kts 221°
2026-04-23 13:08 -37.48894 145.37008 10667 ft 288 kts 220°
2026-04-23 13:08 -37.50441 145.35360 10226 ft 293 kts 221°
2026-04-23 13:09 -37.51976 145.33703 9947 ft 290 kts 223°
2026-04-23 13:09 -37.53505 145.32036 9612 ft 289 kts 222°
2026-04-23 13:09 -37.55017 145.30371 9349 ft 287 kts 223°
2026-04-23 13:09 -37.56511 145.28720 9075 ft 285 kts 222°
2026-04-23 13:10 -37.57967 145.27105 8997 ft 280 kts 222°
2026-04-23 13:10 -37.59419 145.25490 8991 ft 275 kts 222°
2026-04-23 13:10 -37.60830 145.23920 8973 ft 264 kts 222°
2026-04-23 13:10 -37.62174 145.22421 8967 ft 253 kts 222°
2026-04-23 13:11 -37.63483 145.20962 8967 ft 250 kts 222°
2026-04-23 13:11 -37.64779 145.19514 8963 ft 247 kts 222°
2026-04-23 13:11 -37.66062 145.18080 8971 ft 246 kts 222°
2026-04-23 13:11 -37.67340 145.16650 8984 ft 245 kts 222°
2026-04-23 13:12 -37.68628 145.15210 8988 ft 255 kts 222°
2026-04-23 13:12 -37.69999 145.13677 8981 ft 265 kts 222°
2026-04-23 13:12 -37.71367 145.12147 8960 ft 256 kts 222°
2026-04-23 13:12 -37.72651 145.10708 8957 ft 245 kts 222°
2026-04-23 13:13 -37.73917 145.09292 8953 ft 241 kts 222°
2026-04-23 13:13 -37.75174 145.07885 8761 ft 247 kts 222°
2026-04-23 13:13 -37.76546 145.06344 7632 ft 282 kts 222°
2026-04-23 13:13 -37.78088 145.04611 6408 ft 309 kts 222°
2026-04-23 13:14 -37.79745 145.02749 5163 ft 327 kts 223°
2026-04-23 13:14 -37.81219 145.00546 4306 ft 325 kts 244°